| time (UTC) | temp F | wind direction | speed MPH | gust MPH | rain 1hr in | rain 24hr in | rain mn in | humidity % | barometer mb |
| 20260503024535 | 39 | 0 | 0.0 | 0.0 | 0.00 | 0.00 | 0.00 | 81 | 1014.9 |
| 20260503023033 | 39 | 0 | 0.0 | 0.0 | 0.00 | 0.00 | 0.00 | 80 | 1014.8 |
| 20260503021534 | 40 | 0 | 0.0 | 0.0 | 0.00 | 0.00 | 0.00 | 79 | 1014.8 |
| 20260503020032 | 41 | 0 | 0.0 | 1.0 | 0.00 | 0.00 | 0.00 | 78 | 1014.7 |
| 20260503014533 | 42 | 0 | 0.0 | 2.0 | 0.00 | 0.00 | 0.00 | 77 | 1014.7 |
| 20260503013030 | 43 | 0 | 0.0 | 0.0 | 0.00 | 0.00 | 0.00 | 76 | 1014.5 |
| 20260503011530 | 44 | 0 | 0.0 | 6.0 | 0.00 | 0.00 | 0.00 | 74 | 1014.6 |
| 20260503010032 | 44 | 148 | 0.0 | 7.0 | 0.00 | 0.00 | 0.00 | 73 | 1014.6 |
| 20260503004533 | 45 | 0 | 2.0 | 8.0 | 0.00 | 0.00 | 0.00 | 72 | 1014.7 |
| 20260503003031 | 46 | 159 | 2.0 | 8.0 | 0.00 | 0.00 | 0.00 | 70 | 1014.8 |
| 20260503001532 | 46 | 140 | 3.0 | 10.0 | 0.00 | 0.00 | 0.00 | 68 | 1015.0 |
| 20260503000034 | 47 | 159 | 3.0 | 12.0 | 0.00 | 0.00 | 0.00 | 66 | 1015.0 |
| 20260502234535 | 48 | 170 | 4.0 | 12.0 | 0.00 | 0.00 | 0.00 | 64 | 1015.1 |
| 20260502233032 | 48 | 170 | 8.0 | 15.0 | 0.00 | 0.00 | 0.00 | 62 | 1015.4 |
| 20260502231531 | 48 | 182 | 5.0 | 14.0 | 0.00 | 0.00 | 0.00 | 62 | 1015.4 |
| 20260502230032 | 48 | 165 | 5.0 | 15.0 | 0.00 | 0.00 | 0.00 | 63 | 1015.6 |
| 20260502224532 | 48 | 147 | 7.0 | 15.0 | 0.00 | 0.00 | 0.00 | 61 | 1015.9 |
| 20260502223034 | 49 | 178 | 3.0 | 15.0 | 0.00 | 0.00 | 0.00 | 60 | 1015.8 |
| 20260502221531 | 48 | 130 | 7.0 | 17.0 | 0.00 | 0.00 | 0.00 | 59 | 1015.9 |
| 20260502220032 | 48 | 184 | 11.0 | 18.0 | 0.00 | 0.00 | 0.00 | 58 | 1016.1 |
| 20260502214532 | 48 | 153 | 8.0 | 17.0 | 0.00 | 0.00 | 0.00 | 56 | 1016.1 |
| 20260502213039 | 48 | 131 | 6.0 | 14.0 | 0.00 | 0.00 | 0.00 | 57 | 1016.2 |
| 20260502211535 | 48 | 92 | 4.0 | 15.0 | 0.00 | 0.00 | 0.00 | 56 | 1016.4 |
| 20260502210032 | 49 | 116 | 6.0 | 17.0 | 0.00 | 0.00 | 0.00 | 55 | 1016.5 |
| 20260502204530 | 50 | 169 | 9.0 | 15.0 | 0.00 | 0.00 | 0.00 | 52 | 1016.6 |
| 20260502203032 | 49 | 189 | 7.0 | 17.0 | 0.00 | 0.00 | 0.00 | 53 | 1016.8 |
| 20260502201534 | 50 | 157 | 7.0 | 17.0 | 0.00 | 0.00 | 0.00 | 50 | 1017.1 |
| 20260502200032 | 52 | 152 | 7.0 | 15.0 | 0.00 | 0.00 | 0.00 | 51 | 1017.1 |
| 20260502194533 | 54 | 165 | 4.0 | 16.0 | 0.00 | 0.00 | 0.00 | 49 | 1017.3 |
| 20260502193030 | 53 | 151 | 9.0 | 16.0 | 0.00 | 0.00 | 0.00 | 48 | 1017.3 |
| 20260502191530 | 52 | 140 | 8.0 | 18.0 | 0.00 | 0.00 | 0.00 | 48 | 1017.7 |
| 20260502190035 | 50 | 193 | 9.0 | 15.0 | 0.00 | 0.00 | 0.00 | 52 | 1017.8 |
| 20260502184532 | 48 | 173 | 3.0 | 13.0 | 0.00 | 0.00 | 0.00 | 51 | 1018.0 |
| 20260502183030 | 48 | 159 | 5.0 | 17.0 | 0.00 | 0.00 | 0.00 | 54 | 1018.0 |
| 20260502181536 | 48 | 163 | 4.0 | 13.0 | 0.00 | 0.00 | 0.00 | 53 | 1018.2 |
| 20260502163033 | 52 | 312 | 4.0 | 13.0 | 0.00 | 0.00 | 0.00 | 41 | 1018.9 |
| 20260502161532 | 52 | 213 | 2.0 | 14.0 | 0.00 | 0.00 | 0.00 | 44 | 1018.9 |
| 20260502151532 | 50 | 0 | 3.0 | 11.0 | 0.00 | 0.00 | 0.00 | 47 | 1019.2 |
| 20260502123033 | 33 | 311 | 3.0 | 7.0 | 0.00 | 0.00 | 0.00 | 93 | 1019.5 |
| 20260502121532 | 31 | 303 | 2.0 | 8.0 | 0.00 | 0.00 | 0.00 | 92 | 1019.2 |
| 20260502114529 | 27 | 0 | 0.0 | 1.0 | 0.00 | 0.00 | 0.00 | 91 | 1019.1 |
| 20260502113032 | 27 | 0 | 0.0 | 0.0 | 0.00 | 0.00 | 0.00 | 91 | 1019.0 |
| 20260502111530 | 26 | 0 | 0.0 | 0.0 | 0.00 | 0.00 | 0.00 | 90 | 1018.9 |
| 20260502110031 | 26 | 0 | 0.0 | 0.0 | 0.00 | 0.00 | 0.00 | 90 | 1018.9 |
| 20260502104530 | 26 | 0 | 0.0 | 0.0 | 0.00 | 0.00 | 0.00 | 90 | 1018.8 |
| 20260502103029 | 26 | 0 | 0.0 | 0.0 | 0.00 | 0.00 | 0.00 | 90 | 1018.7 |
| 20260502101537 | 26 | 0 | 0.0 | 0.0 | 0.00 | 0.00 | 0.00 | 90 | 1018.8 |
| 20260502091530 | 26 | 0 | 0.0 | 1.0 | 0.00 | 0.00 | 0.00 | 89 | 1018.8 |
| 20260502071530 | 27 | 0 | 0.0 | 0.0 | 0.00 | 0.01 | 0.00 | 87 | 1018.7 |
| 20260502070030 | 27 | 0 | 0.0 | 0.0 | 0.00 | 0.01 | 0.00 | 86 | 1018.8 |
| 20260502064549 | 27 | 0 | 0.0 | 0.0 | 0.00 | 0.01 | 0.00 | 86 | 1018.8 |
| 20260502063034 | 27 | 0 | 0.0 | 0.0 | 0.00 | 0.01 | 0.00 | 86 | 1019.1 |
| 20260502061531 | 28 | 0 | 0.0 | 0.0 | 0.00 | 0.01 | 0.00 | 85 | 1019.2 |
| 20260502060035 | 28 | 0 | 0.0 | 0.0 | 0.00 | 0.01 | 0.00 | 85 | 1019.3 |
| 20260502054531 | 28 | 0 | 0.0 | 0.0 | 0.00 | 0.02 | 0.00 | 85 | 1019.2 |
| 20260502053032 | 28 | 0 | 0.0 | 0.0 | 0.00 | 0.02 | 0.00 | 85 | 1019.3 |
| 20260502051537 | 28 | 0 | 0.0 | 0.0 | 0.00 | 0.02 | 0.00 | 84 | 1019.3 |
| 20260502050032 | 29 | 0 | 0.0 | 0.0 | 0.00 | 0.02 | 0.00 | 83 | 1019.2 |
| 20260502044538 | 29 | 0 | 0.0 | 0.0 | 0.00 | 0.02 | 0.02 | 83 | 1019.1 |
| 20260502043032 | 29 | 0 | 0.0 | 0.0 | 0.00 | 0.02 | 0.02 | 83 | 1018.9 |
| 20260502041534 | 30 | 0 | 0.0 | 0.0 | 0.00 | 0.02 | 0.02 | 82 | 1018.9 |
| 20260502040040 | 30 | 0 | 0.0 | 0.0 | 0.00 | 0.02 | 0.02 | 82 | 1018.9 |
| 20260502034533 | 31 | 0 | 0.0 | 0.0 | 0.00 | 0.04 | 0.02 | 81 | 1018.8 |
| 20260502033032 | 31 | 0 | 0.0 | 0.0 | 0.00 | 0.04 | 0.02 | 80 | 1018.9 |
| 20260502031534 | 32 | 0 | 0.0 | 0.0 | 0.00 | 0.04 | 0.02 | 79 | 1019.0 |
| 20260502030032 | 33 | 0 | 0.0 | 0.0 | 0.00 | 0.04 | 0.02 | 77 | 1018.8 |